SL-16 DEB, 39903

Orbit data source: Space-Track

SL-16 DEB, 39903 is space debris in LEO originally from a launch on Fri, 26 Mar 1993 UTC launched from the Tyuratam Missile And Space Complex (TTMTR). Debris objects in space refer to the collection of defunct objects orbiting the Earth. Examples of debris include non-operational satellites, rocket bodies, and fragments generated from explosions, collisions, or faulty payload assembly.

Loading next visibility...
Identifier
39903, 1993-016CD
Orbit
LEO
Country
Flag of CISCIS
Related business
Manufacturer
Unknown
Mission
Spacecraft
Bus & Motor
Unknown
Mass
Unknown
Launch date (UTC)
1993-03-26 (33 years ago)
Launch vehicle
Unknown
Launch site
Tyuratam Missile And Space Complex (TTMTR)
Object type
Payload
Rocket body
Debris
Shape & HBR
Unknown shape, 0.1 m
Radar Cross Section
Small (<0.1 m²)

Expand to show TLE details & history
Last TLE update: 1 day ago

TLE from 1 day ago
0 SL-16 DEB
1 39903U 93016CD  26035.73020867  .00000454  00000-0  39158-3 0  9994
2 39903  70.9889  36.3108 0133810  22.6696 156.2127 13.87664476592030
Epoch: 2026-02-04T17:31Z
TLE epoch observation values (Epoch: 2026-02-04T17:31:30.029Z)
Latitude
0.37879°
Longitude
178.41324°
Altitude
1,028.937 km
Speed
7.292 km/s
True Right ascension
14h 24m 43s
True Declination
0° 22' 36"
Sunlit
Object was in daylight at epoch
Visualization orbit readout
Latitude
Unknown
Longitude
Unknown
Altitude
Unknown
Speed
Unknown
Apparent Right ascension
Unknown
Apparent Declination
Unknown
Sunlit
N/A
Visualization observer readout
Local Sidereal Time
23:20:19
Azimuth
Unknown
Elevation
Unknown
Doppler factor
Unknown
Orbital elements
Apogee altitude
1,032.633 km
Perigee altitude
836.925 km
Semi-major axis
7,312.916 km
Eccentricity
0.01338
Inclination
70.9889°
RAAN
36.3108°
Arg. of periapsis
22.6696°
True anomaly
156.82182°
Mean anomaly
156.2127°
Eccentric anomaly
156.51819°
Mean motion
3.47062 °/min
Orbital period
103.73 mins
BSTAR
0.00039158
Loading maneuver chart data...
Computing Atmospheric mass density...
Loading historical data...
Loading historical data...
Loading historical data...
Loading historical data...
Loading historical data...
Loading historical data...
Loading historical data...

Documentation

Showing up to 5 results
|